#timestamp,LO_Frequency,Hit,StdDev 
1589526015.9,286047000.3,N
1589526035.7,286047002.8,N
1589526055.6,286047001.9,N
1589526075.4,286047004.2,N
1589526095.2,286047004.8,N
1589526115.1,286047005.2,N
1589526116.0,286047005.2,N
1589526135.8,286047003.0,N
1589526155.6,286047005.8,N
1589526175.5,286047003.8,N
1589526195.3,286047004.4,N
1589526215.2,286047001.5,N
1589526235.9,286047004.0,N
1589526255.7,286047002.5,N
1589526275.6,286047004.4,N
1589526295.4,286047001.4,N
1589526315.2,286047003.1,N
1589526335.1,286047003.3,N
1589526336.0,286047003.3,N
1589526355.8,286047004.1,N
1589526375.7,286047001.3,N
1589526395.5,286046999.9,N
1589526415.3,286047000.9,N
1589526435.2,286047000.6,N
1589526455.0,286046998.2,N
1589526455.9,286046998.2,N
1589526475.8,286046999.9,N
1589526495.6,286047001.0,N
1589526515.4,286047000.8,N
1589526535.3,286047002.2,N
1589526555.1,286047002.1,N
1589526575.9,286047002.2,N
1589526595.7,286047001.8,N
1589526615.5,286047004.0,N
1589526635.4,286047001.4,N
1589526655.2,286047001.5,N
1589526675.0,286047004.3,N
1589526675.9,286047004.3,N
1589526695.8,286047003.7,N
1589526715.6,286047003.2,N
1589526735.5,286047005.7,Y
1589526755.3,286047003.8,P
1589526775.1,286047004.4,P
1589526795.9,286047002.7,N
1589526815.7,286047001.0,N
1589526835.6,286046998.9,N
1589526855.4,286046998.1,N
1589526875.2,286047002.3,N
1589526895.1,286047002.4,N
1589526896.0,286047002.4,N
1589526915.8,286047002.5,N
1589526935.6,286047000.1,N
1589526955.5,286047000.5,N
1589526975.3,286046999.9,N
1589526995.2,286047000.7,N
1589527015.9,286047001.1,N
1589527035.7,286047000.5,N
1589527055.6,286047000.8,N
1589527075.4,286046998.1,N
1589527095.2,286046998.1,N
1589527115.1,286046998.5,N
1589527116.0,286046998.5,N
1589527135.8,286047000.8,N
1589527155.7,286047000.2,N
1589527175.5,286047001.8,N
1589527195.3,286047004.2,N
1589527215.2,286047003.9,N
1589527235.0,286047002.0,N
1589527235.9,286047002.0,N
1589527255.7,286047002.0,N
1589527275.6,286047000.5,N
1589527295.4,286046998.7,N
1589527315.3,286046998.8,N
1589527335.1,286046996.7,N
1589527336.0,286046996.7,N
1589527355.8,286046998.0,N
1589527375.7,286046997.6,N
1589527395.5,286046996.7,N
1589527415.4,286046998.0,N
1589527435.2,286046995.5,N
1589527455.0,286046994.9,N
1589527455.9,286046994.9,N
1589527475.8,286046998.0,N
1589527495.6,286046997.2,N
1589527515.4,286046996.8,N
1589527535.3,286046999.3,N
1589527555.1,286046996.6,N
1589527575.9,286046996.9,N
1589527595.7,286046999.2,N
1589527615.5,286046999.4,N
1589527635.4,286046997.0,N
1589527655.2,286046998.3,N
1589527675.1,286046999.4,N
1589527676.0,286046999.4,N
1589527695.8,286047001.1,N
1589527715.6,286046998.2,N
1589527735.5,286046998.9,N
1589527755.3,286046998.5,N
1589527775.1,286046996.5,N
1589527795.9,286046997.5,N
1589527815.7,286046995.0,Y
1589527835.6,286046998.3,P
1589527855.4,286046998.6,P
1589527875.2,286046998.4,P
1589527895.1,286047000.9,Y
1589527896.0,286047000.9,P
1589527915.8,286047002.0,N
1589527935.6,286047004.1,N
1589527955.5,286047002.0,N
1589527975.3,286047002.7,N
1589527995.2,286047002.0,N
1589528015.9,286047002.3,N
1589528035.7,286047002.8,N
1589528055.6,286046999.9,N
1589528075.4,286047001.0,N
1589528095.2,286046998.3,N
1589528115.1,286047000.6,N
1589528116.0,286047000.6,N
1589528135.8,286047000.1,N
1589528155.7,286047000.2,N
1589528175.5,286047000.3,N
1589528195.3,286047000.0,N
1589528215.2,286047000.1,N
1589528235.9,286047000.8,N
1589528255.7,286047002.0,N
1589528275.6,286047001.9,N
1589528295.4,286047000.1,N
1589528315.3,286047000.7,N
1589528335.1,286047001.2,N
1589528336.0,286047001.2,N
1589528355.8,286047000.9,N
1589528375.7,286047000.8,N
1589528395.5,286046998.7,N
1589528415.3,286046999.6,N
1589528435.2,286046997.1,N
1589528455.0,286046997.4,N
1589528455.9,286046997.4,N
1589528475.8,286046996.6,N
1589528495.6,286047000.7,N
1589528515.4,286046998.7,N
1589528535.3,286046999.2,N
1589528555.1,286046997.6,N
1589528575.9,286046995.7,N
1589528595.7,286046995.4,N
1589528615.5,286046995.1,N
1589528635.4,286046997.9,N
1589528655.2,286046997.6,N
1589528675.0,286046995.7,N
1589528676.0,286046995.7,N
1589528695.8,286046996.2,N
1589528715.6,286046997.8,N
1589528735.5,286046997.0,N
1589528755.3,286046999.8,N
1589528775.1,286046998.1,N
1589528795.9,286046999.3,N
1589528815.7,286046997.0,N
1589528835.6,286046998.6,N
1589528855.4,286047001.0,N
1589528875.2,286047000.8,N
1589528895.1,286046998.1,N
1589528896.0,286046998.1,N
1589528915.8,286046998.1,N
1589528935.7,286046997.7,N
1589528955.5,286046997.5,N
1589528975.3,286046997.8,N
1589528995.2,286046997.5,N
1589529015.0,286046997.1,N
1589529015.9,286046997.1,N
1589529035.7,286046995.9,N
1589529055.6,286046997.5,N
1589529075.4,286046997.4,N
1589529095.3,286046997.8,N
1589529115.1,286046996.7,N
1589529135.8,286046997.8,N
1589529155.7,286046997.8,N
1589529175.5,286046996.7,N
1589529195.4,286046998.0,N
1589529215.2,286046995.1,Y
1589529235.0,286046999.6,P
1589529235.9,286046999.6,N
1589529255.8,286046999.0,N
1589529275.6,286046998.7,N
1589529295.4,286046998.5,N
1589529315.3,286046999.0,N
1589529335.1,286046999.3,N
1589529355.9,286046999.6,N
1589529375.7,286046999.6,N
1589529395.5,286046997.3,Y
1589529415.4,286046997.0,P
1589529435.2,286046995.3,P
1589529455.0,286046999.2,N
1589529455.9,286046999.2,N
1589529475.8,286046999.4,N
1589529495.6,286046999.5,N
1589529515.5,286046999.3,N
1589529535.3,286046998.3,N
1589529555.1,286046999.3,N
1589529575.9,286047001.1,N
1589529595.7,286046998.2,N
